LAN4777 SBGR-SBCT

Flight info

Callsign LAN4777
Flight time 0h 40m
Altitude 32000
Route SOVSI UZ85 RAXIT
Aircraft B77W/H-SDE1E2E3FGHIJ2J3J4J5M1RWXY/LB1D1

Departure

Time 2026-05-01 13:18
Airport São Paulo/Guarulhos–Governor André Franco Montoro International Airport (SBGR)

Arrival

Time 2026-05-01 13:58
Airport Curitiba-Afonso Pena International Airport (SBCT)
Time Latitude Longitude Altitude Speed Heading
2026-05-01 12:44 -23.42933 -46.47991 2469 ft 0 kts 24°
2026-05-01 13:09 -23.42938 -46.47993 2469 ft 4 kts 20°
2026-05-01 13:09 -23.42958 -46.47998 2469 ft 4 kts 345°
2026-05-01 13:09 -23.42971 -46.47992 2472 ft 4 kts 298°
2026-05-01 13:09 -23.42978 -46.47967 2470 ft 4 kts 274°
2026-05-01 13:10 -23.42977 -46.47939 2470 ft 4 kts 260°
2026-05-01 13:10 -23.42974 -46.47921 2470 ft 1 kts 253°
2026-05-01 13:12 -23.42974 -46.47922 2470 ft 0 kts 253°
2026-05-01 13:14 -23.42984 -46.47956 2475 ft 10 kts 253°
2026-05-01 13:14 -23.43003 -46.48027 2471 ft 10 kts 253°
2026-05-01 13:14 -23.43029 -46.48123 2472 ft 16 kts 255°
2026-05-01 13:14 -23.43049 -46.48234 2470 ft 11 kts 260°
2026-05-01 13:15 -23.43057 -46.48295 2471 ft 8 kts 263°
2026-05-01 13:15 -23.43061 -46.48339 2470 ft 8 kts 265°
2026-05-01 13:15 -23.43083 -46.48402 2473 ft 13 kts 218°
2026-05-01 13:15 -23.43189 -46.48399 2474 ft 16 kts 166°
2026-05-01 13:16 -23.43287 -46.48371 2477 ft 0 kts 165°
2026-05-01 13:16 -23.43336 -46.48357 2472 ft 22 kts 165°
2026-05-01 13:17 -23.43059 -46.46979 2469 ft 154 kts 73°
2026-05-01 13:17 -23.42706 -46.45697 2670 ft 189 kts 73°
2026-05-01 13:18 -23.41973 -46.42787 3640 ft 208 kts 75°
2026-05-01 13:18 -23.41600 -46.41245 4098 ft 213 kts 73°
2026-05-01 13:18 -23.41167 -46.39657 4144 ft 225 kts 72°
2026-05-01 13:18 -23.40650 -46.38003 4330 ft 239 kts 70°
2026-05-01 13:19 -23.40207 -46.36198 4550 ft 256 kts 85°
2026-05-01 13:19 -23.40532 -46.34273 5113 ft 264 kts 109°
2026-05-01 13:19 -23.41850 -46.30445 6533 ft 277 kts 108°
2026-05-01 13:20 -23.42501 -46.28459 7197 ft 280 kts 108°
2026-05-01 13:20 -23.43376 -46.26561 7567 ft 288 kts 130°
2026-05-01 13:20 -23.45000 -46.25317 8185 ft 286 kts 161°
2026-05-01 13:21 -23.48857 -46.25399 9124 ft 283 kts 192°
2026-05-01 13:21 -23.50835 -46.25824 9249 ft 291 kts 192°
2026-05-01 13:21 -23.52793 -46.26242 9244 ft 290 kts 193°
2026-05-01 13:21 -23.54637 -46.27074 9575 ft 291 kts 219°
2026-05-01 13:22 -23.55969 -46.28734 10445 ft 292 kts 242°
2026-05-01 13:22 -23.56674 -46.30806 11258 ft 300 kts 257°
2026-05-01 13:22 -23.57146 -46.33132 11580 ft 329 kts 259°
2026-05-01 13:22 -23.57614 -46.35687 11908 ft 355 kts 259°
2026-05-01 13:23 -23.58104 -46.38347 12843 ft 360 kts 259°
2026-05-01 13:23 -23.58612 -46.41038 13831 ft 365 kts 258°
2026-05-01 13:23 -23.59139 -46.43764 14696 ft 370 kts 258°
2026-05-01 13:23 -23.59682 -46.46523 15529 ft 374 kts 258°
2026-05-01 13:24 -23.60236 -46.49326 16182 ft 382 kts 258°
2026-05-01 13:24 -23.60798 -46.52170 16282 ft 387 kts 259°
2026-05-01 13:24 -23.61271 -46.55071 16825 ft 392 kts 262°
2026-05-01 13:25 -23.62090 -46.60958 18755 ft 393 kts 262°
2026-05-01 13:25 -23.62524 -46.63910 19497 ft 394 kts 260°
2026-05-01 13:25 -23.63371 -46.66785 20053 ft 405 kts 243°
2026-05-01 13:25 -23.64895 -46.69374 20628 ft 410 kts 237°
2026-05-01 13:26 -23.66493 -46.71977 21317 ft 414 kts 238°
2026-05-01 13:26 -23.68067 -46.74616 22092 ft 417 kts 239°
2026-05-01 13:26 -23.69629 -46.77296 22830 ft 420 kts 239°
2026-05-01 13:26 -23.71197 -46.80004 23550 ft 424 kts 239°
2026-05-01 13:27 -23.72791 -46.82733 24191 ft 428 kts 239°
2026-05-01 13:27 -23.74406 -46.85477 24812 ft 430 kts 239°
2026-05-01 13:27 -23.77663 -46.91004 26051 ft 435 kts 239°
2026-05-01 13:28 -23.80949 -46.96590 27341 ft 439 kts 239°
2026-05-01 13:28 -23.82601 -46.99404 27957 ft 441 kts 239°
2026-05-01 13:29 -23.85934 -47.05090 29191 ft 446 kts 239°
2026-05-01 13:29 -23.89246 -47.10743 30880 ft 437 kts 240°
2026-05-01 13:30 -23.95775 -47.21917 32211 ft 450 kts 240°
2026-05-01 13:31 -23.99226 -47.27837 32230 ft 466 kts 240°
2026-05-01 13:32 -24.07995 -47.42885 32208 ft 471 kts 240°
2026-05-01 13:33 -24.14876 -47.50444 32212 ft 479 kts 215°
2026-05-01 13:33 -24.20580 -47.54213 32203 ft 481 kts 216°
2026-05-01 13:34 -24.31948 -47.62043 32199 ft 483 kts 217°
2026-05-01 13:35 -24.39510 -47.67298 32195 ft 483 kts 217°
2026-05-01 13:36 -24.46524 -47.73204 32199 ft 474 kts 227°
2026-05-01 13:36 -24.51866 -47.78891 32178 ft 440 kts 228°
2026-05-01 13:37 -24.54046 -47.81195 31924 ft 432 kts 228°
2026-05-01 13:37 -24.56217 -47.83465 31428 ft 429 kts 228°
2026-05-01 13:37 -24.58378 -47.85700 30933 ft 426 kts 227°
2026-05-01 13:37 -24.60535 -47.87917 30429 ft 424 kts 227°
2026-05-01 13:38 -24.64837 -47.92323 29271 ft 420 kts 227°
2026-05-01 13:38 -24.66969 -47.94506 28719 ft 417 kts 227°
2026-05-01 13:38 -24.69060 -47.96648 28216 ft 415 kts 227°
2026-05-01 13:39 -24.71161 -47.98800 27696 ft 413 kts 227°
2026-05-01 13:39 -24.73257 -48.00949 27196 ft 410 kts 227°
2026-05-01 13:39 -24.75338 -48.03086 26685 ft 409 kts 227°
2026-05-01 13:39 -24.77412 -48.05216 26195 ft 407 kts 227°
2026-05-01 13:40 -24.79477 -48.07338 25665 ft 406 kts 227°
2026-05-01 13:40 -24.81539 -48.09458 25183 ft 405 kts 227°
2026-05-01 13:40 -24.83599 -48.11579 24670 ft 405 kts 227°
2026-05-01 13:40 -24.85651 -48.13693 24168 ft 403 kts 227°
2026-05-01 13:41 -24.87701 -48.15802 23655 ft 403 kts 226°
2026-05-01 13:41 -24.89749 -48.17910 23102 ft 402 kts 226°
2026-05-01 13:41 -24.91786 -48.20009 22582 ft 400 kts 226°
2026-05-01 13:41 -24.93812 -48.22097 22083 ft 397 kts 226°
2026-05-01 13:42 -24.95815 -48.24163 21630 ft 394 kts 226°
2026-05-01 13:42 -24.97771 -48.26261 21134 ft 390 kts 232°
2026-05-01 13:42 -24.99202 -48.28740 20640 ft 377 kts 247°
2026-05-01 13:42 -25.00299 -48.31353 20188 ft 376 kts 247°
2026-05-01 13:43 -25.01416 -48.33960 19711 ft 375 kts 246°
2026-05-01 13:43 -25.02551 -48.36551 19230 ft 376 kts 246°
2026-05-01 13:43 -25.03702 -48.39139 18747 ft 376 kts 245°
2026-05-01 13:43 -25.04857 -48.41720 18243 ft 376 kts 245°
2026-05-01 13:44 -25.06011 -48.44297 17717 ft 373 kts 245°
2026-05-01 13:44 -25.07158 -48.46854 17250 ft 371 kts 245°
2026-05-01 13:44 -25.08296 -48.49393 16764 ft 368 kts 245°
2026-05-01 13:44 -25.09423 -48.51912 16293 ft 365 kts 245°
2026-05-01 13:45 -25.10541 -48.54409 15842 ft 362 kts 245°
2026-05-01 13:45 -25.11653 -48.56898 15383 ft 360 kts 245°
2026-05-01 13:45 -25.12742 -48.59336 14932 ft 359 kts 245°
2026-05-01 13:45 -25.13834 -48.61782 14472 ft 358 kts 245°
2026-05-01 13:46 -25.14934 -48.64248 14020 ft 357 kts 245°
2026-05-01 13:46 -25.15757 -48.66094 13633 ft 355 kts 245°
2026-05-01 13:46 -25.16829 -48.68512 13174 ft 353 kts 245°
2026-05-01 13:46 -25.17903 -48.70942 12706 ft 351 kts 245°
2026-05-01 13:47 -25.18968 -48.73352 12270 ft 348 kts 245°
2026-05-01 13:47 -25.20029 -48.75753 11831 ft 346 kts 245°
2026-05-01 13:47 -25.21073 -48.78132 11391 ft 340 kts 247°
2026-05-01 13:47 -25.21705 -48.80598 11103 ft 327 kts 265°
2026-05-01 13:48 -25.21822 -48.83062 10929 ft 318 kts 268°
2026-05-01 13:48 -25.21927 -48.85422 10733 ft 298 kts 267°
2026-05-01 13:48 -25.22037 -48.87625 10553 ft 277 kts 267°
2026-05-01 13:48 -25.22151 -48.89737 10433 ft 278 kts 267°
2026-05-01 13:49 -25.22273 -48.91898 10290 ft 285 kts 267°
2026-05-01 13:49 -25.22398 -48.94080 10132 ft 284 kts 266°
2026-05-01 13:49 -25.22523 -48.96243 9951 ft 279 kts 266°
2026-05-01 13:49 -25.22708 -48.98346 9730 ft 270 kts 257°
2026-05-01 13:50 -25.23396 -49.00286 9411 ft 272 kts 245°
2026-05-01 13:50 -25.24212 -49.02165 9230 ft 271 kts 245°
2026-05-01 13:50 -25.25018 -49.04031 9055 ft 269 kts 245°
2026-05-01 13:50 -25.25813 -49.05891 8904 ft 267 kts 246°
2026-05-01 13:51 -25.26602 -49.07752 8757 ft 269 kts 246°
2026-05-01 13:51 -25.27394 -49.09634 8618 ft 271 kts 246°
2026-05-01 13:51 -25.28189 -49.11529 8457 ft 272 kts 246°
2026-05-01 13:51 -25.28981 -49.13423 8308 ft 272 kts 246°
2026-05-01 13:52 -25.29772 -49.15317 8160 ft 271 kts 246°
2026-05-01 13:52 -25.30560 -49.17204 7992 ft 270 kts 246°
2026-05-01 13:52 -25.31341 -49.19080 7863 ft 268 kts 246°
2026-05-01 13:52 -25.32118 -49.20947 7684 ft 267 kts 247°
2026-05-01 13:53 -25.32890 -49.22803 7589 ft 265 kts 247°
2026-05-01 13:53 -25.34361 -49.26571 7161 ft 271 kts 248°
2026-05-01 13:53 -25.35191 -49.28434 6925 ft 267 kts 243°
2026-05-01 13:54 -25.36151 -49.30128 6694 ft 254 kts 234°
2026-05-01 13:54 -25.37513 -49.31318 6545 ft 248 kts 205°
2026-05-01 13:54 -25.39166 -49.31539 6289 ft 234 kts 170°
2026-05-01 13:54 -25.40584 -49.30829 6066 ft 217 kts 146°
2026-05-01 13:55 -25.41749 -49.29848 5835 ft 202 kts 141°
2026-05-01 13:55 -25.42777 -49.28857 5555 ft 191 kts 135°
2026-05-01 13:55 -25.43716 -49.27828 5343 ft 190 kts 133°
2026-05-01 13:55 -25.44645 -49.26783 5094 ft 189 kts 132°
2026-05-01 13:56 -25.45538 -49.25781 4871 ft 178 kts 132°
2026-05-01 13:56 -25.46389 -49.24825 4607 ft 169 kts 133°
2026-05-01 13:56 -25.47192 -49.23924 4421 ft 162 kts 133°
2026-05-01 13:56 -25.47987 -49.23030 4239 ft 164 kts 133°
2026-05-01 13:57 -25.48784 -49.22134 3999 ft 161 kts 133°
2026-05-01 13:57 -25.49558 -49.21265 3786 ft 157 kts 133°
2026-05-01 13:57 -25.50312 -49.20420 3578 ft 155 kts 133°
2026-05-01 13:57 -25.51068 -49.19576 3370 ft 153 kts 134°
2026-05-01 13:58 -25.51804 -49.18752 3164 ft 149 kts 132°
2026-05-01 13:58 -25.52512 -49.17962 3022 ft 139 kts 135°
2026-05-01 13:58 -25.53129 -49.17270 2992 ft 105 kts 135°
2026-05-01 13:58 -25.53500 -49.16862 2997 ft 46 kts 136°
2026-05-01 13:59 -25.53596 -49.16798 2999 ft 6 kts 215°
2026-05-01 13:59 -25.53613 -49.16868 2999 ft 0 kts 270°
2026-05-01 14:00 -25.53616 -49.16943 2998 ft 12 kts 266°
2026-05-01 14:00 -25.53675 -49.16981 2998 ft 12 kts 161°
2026-05-01 14:01 -25.53740 -49.16925 2999 ft 12 kts 131°
2026-05-01 14:01 -25.53785 -49.16874 3000 ft 7 kts 155°
2026-05-01 14:01 -25.53816 -49.16882 3000 ft 2 kts 209°
2026-05-01 14:01 -25.53833 -49.16897 3000 ft 4 kts 220°
2026-05-01 14:02 -25.53848 -49.16910 3000 ft 0 kts 220°